Location: Aula-Vintri
(58.3875°N, 22.4322°E)
Time: 10:18:53
(UTC+00:00)

STARLINK-46 - Pass Details

Date: 13 October 2019
Orbit: 357 x 393 km, 53.0° (Epoch: 13 November)

Event Time Altitude Azimuth Distance (km) Brightness Sun altitude
Rises 16:53:41 0° 259° (W) 2,238 8.5 -11.5°
Reaches altitude 10° 16:55:51 10° 248° (WSW) 1,394 6.8 -11.8°
Maximum altitude 16:58:36 29° 186° (S) 732 4.3 -12.2°
Enters shadow 17:00:27 17° 134° (SE) 1,080 4.7 -12.4°
